Weather observations for the past three days for
Glenwood Municipal Airport
Imperial (Metric)
Date Time (cdt) Wind (mph) Vis. (mi.) Weather Sky Cond. Temperature (ºF) Relative Humidity Wind Chill (°F) Heat Index (°F) Pressure Precipitation (in)
Air Dwpt 6 hour altimeter (in) sea level (mb) 1 hr 3 hr 6 hr
Max. Min.
16 00:35 NW 6 10.00 Fair CLR 62.6 59 88% 29.89 0.0
16 00:15 NW 6 10.00 Fair CLR 62.6 60.8 94% 29.88 0.0
15 23:55 W 5 10.00 Fair CLR 62.6 60.8 94% 29.88 0.0
15 23:35 Calm 10.00 Fair CLR 62.6 60.8 94% 29.87 0.0
15 23:15 W 3 10.00 Fair CLR 62.6 59 88% 29.87 0.0
15 22:55 NW 3 10.00 Fair CLR 64.4 59 83% 29.86 0.0
15 22:35 NW 3 10.00 Fair CLR 64.4 59 83% 29.85 0.0
15 22:15 NW 5 10.00 Fair CLR 64.4 59 83% 29.85 0.0
15 21:35 NW 6 10.00 Fair CLR 66.2 59 78% 29.83 0.0
15 21:15 NW 7 10.00 Fair CLR 66.2 59 78% 29.82 0.0
15 20:55 NW 7 10.00 Fair CLR 69.8 60.8 73% 29.81 0.0
15 20:35 NW 6 10.00 Fair CLR 71.6 60.8 69% 29.81 0.0
15 20:15 NW 8 10.00 Fair CLR 71.6 59 65% 29.81 0.0
15 19:55 NW 10 10.00 Fair CLR 73.4 57.2 57% 29.81 0.0
15 19:35 NW 14 G 17 10.00 Fair CLR 75.2 59 57% 78 29.8 0.0
15 19:15 NW 12 G 22 10.00 Fair CLR 75.2 59 57% 78 29.8 0.0
15 18:55 NW 12 10.00 Fair CLR 77 62.6 61% 79 29.8 0.0
15 18:35 NW 15 G 20 10.00 Fair CLR 77 62.6 61% 79 29.8 0.0
15 18:15 NW 14 G 18 10.00 Fair CLR 77 64.4 65% 79 29.8 0.0
15 17:55 NW 14 G 17 10.00 Fair CLR 78.8 64.4 61% 81 29.8 0.0
15 17:35 NW 15 G 20 10.00 Fair CLR 78.8 64.4 61% 81 29.8 0.0
15 17:15 NW 18 10.00 Fair CLR 78.8 64.4 61% 81 29.8 0.0
15 16:55 NW 15 G 22 10.00 Fair CLR 78.8 64.4 61% 81 29.8 0.0
15 16:35 NW 15 G 20 10.00 Fair CLR 78.8 66.2 65% 81 29.8 0.0
15 16:15 W 18 G 22 10.00 Fair CLR 80.6 66.2 62% 83 29.8 0.0
15 15:55 NW 14 G 18 10.00 Fair CLR 80.6 68 66% 83 29.79 0.0
15 15:35 NW 14 G 26 10.00 Fair CLR 80.6 66.2 62% 83 29.79 0.0
15 15:15 NW 15 G 23 10.00 Fair CLR 80.6 69.8 70% 84 29.79 0.0
15 14:55 NW 12 G 22 10.00 Fair CLR 80.6 68 66% 83 29.79 0.0
15 14:35 NW 17 G 23 10.00 Fair CLR 80.6 69.8 70% 84 29.79 0.0
15 14:15 W 12 10.00 Fair CLR 78.8 69.8 74% 81 29.78 0.0
15 13:55 W 12 10.00 Fair CLR 78.8 69.8 74% 81 29.78 0.0
15 13:35 W 10 10.00 Fair CLR 78.8 69.8 74% 81 29.77 0.0
15 13:15 W 13 10.00 Fair CLR 77 69.8 79% 79 29.77 0.0
15 12:55 W 13 10.00 Fair CLR 77 69.8 79% 79 29.77 0.0
15 12:35 SW 12 10.00 Fair CLR 78.8 69.8 74% 81 29.77 0.0
15 12:15 SW 15 10.00 Fair CLR 77 69.8 79% 79 29.77 0.0
15 11:55 S 15 10.00 Fair CLR 75.2 68 78% 76 29.78 0.0
15 11:35 S 14 10.00 Fair CLR 77 68 74% 79 29.78 0.0
15 11:15 S 13 10.00 Fair CLR 75.2 66.2 74% 77 29.77 0.0
15 10:55 S 15 10.00 Fair CLR 75.2 66.2 74% 77 29.77 0.0
15 10:35 S 14 G 18 10.00 Fair CLR 73.4 66.2 78% 29.77 0.0
15 10:15 S 16 G 20 10.00 Fair CLR 71.6 64.4 78% 29.77 0.0
15 09:55 S 21 G 24 10.00 Fair and Breezy CLR 68 62.6 83% 29.76 0.0
15 09:35 S 14 G 21 10.00 Fair CLR 68 62.6 83% 29.78 0.0
15 09:15 S 14 10.00 Light Rain CLR 66.2 64.4 94% 29.78 0.0
15 08:55 S 13 G 17 10.00 Fair CLR 68 66.2 94% 29.79 0.0
15 08:35 SE 13 G 18 10.00 Partly Cloudy SCT050 68 66.2 94% 29.79 0.0
15 08:15 SE 10 10.00 Partly Cloudy SCT065 66.2 64.4 94% 29.81 0.0
15 07:55 S 9 10.00 Light Rain SCT065 66.2 64.4 94% 29.82 0.0
15 07:35 S 7 10.00 Thunderstorm in Vicinity SCT075 SCT085 66.2 64.4 94% 29.83 0.0
15 07:15 SE 5 10.00 Thunderstorm in Vicinity SCT110 66.2 64.4 94% 29.81 0.0
15 06:55 S 3 7.00 Thunderstorm SCT018 SCT026 SCT032 66.2 64.4 94% 29.84 0.0
15 06:35 SE 8 10.00 Thunderstorm Rain SCT016 BKN026 OVC065 66.2 64.4 94% 29.81 0.0
15 06:15 NW 9 G 18 10.00 Thunderstorm Heavy Rain SCT008 BKN042 OVC110 66.2 64.4 94% 29.91 0.0 0.01
15 05:55 NE 9 10.00 Rain SCT021 SCT034 BKN110 66.2 64.4 94% 29.83 0.0 0.01
15 05:35 NE 6 10.00 Light Rain SCT034 SCT065 BKN095 66.2 64.4 94% 29.81 0.0
15 05:15 NE 7 10.00 Thunderstorm Light Rain SCT018 SCT032 BKN095 66.2 64.4 94% 29.82 0.0
15 04:55 N 9 10.00 Thunderstorm in Vicinity CLR 69.8 64.4 83% 29.86 0.0 0.01
15 04:35 S 7 10.00 Fair CLR 71.6 62.6 73% 29.79 0.0
15 04:15 SE 10 10.00 Partly Cloudy SCT090 69.8 64.4 83% 29.76 0.0
15 03:55 S 8 10.00 Fair CLR 66.2 64.4 94% 29.83 0.0
15 03:35 SE 5 10.00 Thunderstorm in Vicinity CLR 66.2 62.6 88% 29.83 0.0
15 03:15 SE 5 10.00 Fair CLR 66.2 62.6 88% 29.82 0.0
15 02:55 E 5 10.00 Fair CLR 66.2 62.6 88% 29.83 0.0
15 02:35 Calm 10.00 Fair CLR 66.2 62.6 88% 29.85 0.0
15 02:15 SE 3 10.00 Fair CLR 66.2 62.6 88% 29.85 0.0
15 01:55 SE 6 10.00 Fair CLR 66.2 62.6 88% 29.84 0.0
15 01:35 SE 6 10.00 Fair CLR 66.2 62.6 88% 29.85 0.0
15 01:15 E 6 10.00 Fair CLR 64.4 62.6 94% 29.85 0.0
15 00:55 E 5 10.00 Fair CLR 66.2 62.6 88% 29.86 0.0
15 00:35 SE 3 10.00 Fair CLR 66.2 62.6 88% 29.87 0.0
15 00:15 Calm 10.00 Fair CLR 68 62.6 83% 29.88 0.0
14 23:55 Calm 10.00 Fair CLR 66.2 62.6 88% 29.89 0.0
14 23:35 Calm 10.00 Fair CLR 68 60.8 78% 29.89 0.0
14 23:15 Calm 10.00 Fair CLR 69.8 60.8 73% 29.89 0.0
14 22:55 Calm 10.00 Fair CLR 71.6 62.6 73% 29.89 0.0
14 22:35 Calm 10.00 Fair CLR 69.8 62.6 78% 29.9 0.0
14 22:15 Calm 10.00 Fair CLR 73.4 62.6 69% 29.9 0.0
14 21:55 N 3 10.00 Fair CLR 73.4 62.6 69% 29.89 0.0
14 21:35 N 3 10.00 Fair CLR 75.2 60.8 61% 77 29.9 0.0
14 21:15 Calm 10.00 Fair CLR 77 59 54% 79 29.9 0.0
14 20:55 NW 3 10.00 Fair CLR 78.8 62.6 58% 80 29.9 0.0
14 20:35 Calm 10.00 Fair CLR 78.8 62.6 58% 80 29.9 0.0
14 20:15 Calm 10.00 Fair CLR 80.6 62.6 54% 82 29.91 0.0
14 19:55 Calm 10.00 Fair CLR 80.6 62.6 54% 82 29.92 0.0
14 19:35 NW 3 10.00 Fair CLR 82.4 64.4 55% 84 29.92 0.0
14 19:15 NW 3 10.00 Fair CLR 82.4 64.4 55% 84 29.92 0.0
14 18:55 NW 6 10.00 Fair CLR 82.4 64.4 55% 84 29.92 0.0
14 18:35 NW 6 10.00 Fair CLR 82.4 60.8 48% 83 29.92 0.0
14 18:15 NW 8 10.00 Fair CLR 84.2 62.6 48% 85 29.93 0.0
14 17:55 NW 8 10.00 Fair CLR 84.2 64.4 51% 86 29.93 0.0
14 17:35 NW 7 10.00 Fair CLR 84.2 62.6 48% 85 29.93 0.0
14 17:15 NW 9 10.00 Fair CLR 84.2 62.6 48% 85 29.93 0.0
14 16:55 W 7 10.00 Fair CLR 84.2 62.6 48% 85 29.93 0.0
14 16:35 NW 6 10.00 Fair CLR 86 62.6 46% 87 29.93 0.0
14 16:15 NW 6 10.00 Fair CLR 86 60.8 43% 86 29.93 0.0
14 15:55 NW 7 10.00 Fair CLR 86 59 40% 85 29.94 0.0
14 15:35 W 6 10.00 Fair CLR 86 64.4 49% 87 29.94 0.0
14 15:15 NW 7 10.00 Fair CLR 84.2 59 43% 84 29.93 0.0
14 14:55 NW 8 10.00 Fair CLR 84.2 66.2 55% 87 29.94 0.0
14 14:35 NW 9 10.00 Fair CLR 84.2 66.2 55% 87 29.93 0.0
14 14:15 NW 8 10.00 Fair CLR 84.2 69.8 62% 88 29.93 0.0
14 13:55 NW 7 10.00 Fair CLR 84.2 69.8 62% 88 29.93 0.0
14 13:35 W 7 10.00 Fair CLR 84.2 69.8 62% 88 29.93 0.0
14 13:15 NW 7 10.00 Fair CLR 84.2 69.8 62% 88 29.93 0.0
14 12:55 NW 7 10.00 Fair CLR 82.4 69.8 66% 86 29.93 0.0
14 12:35 NW 5 10.00 Fair CLR 82.4 69.8 66% 86 29.93 0.0
14 12:15 NW 6 10.00 Fair CLR 82.4 69.8 66% 86 29.94 0.0
14 11:55 NW 7 10.00 Fair CLR 82.4 69.8 66% 86 29.94 0.0
14 11:35 N 5 10.00 Fair CLR 82.4 69.8 66% 86 29.93 0.0
14 11:15 NW 3 10.00 Fair CLR 80.6 69.8 70% 84 29.93 0.0
14 10:55 N 3 10.00 Fair CLR 78.8 68 70% 81 29.93 0.0
14 10:35 NE 3 10.00 Fair CLR 78.8 69.8 74% 81 29.93 0.0
14 10:15 NE 3 10.00 Fair CLR 78.8 69.8 74% 81 29.93 0.0
14 09:55 N 5 10.00 Fair CLR 75.2 69.8 83% 75 29.92 0.0
14 09:35 N 6 10.00 Fair CLR 73.4 66.2 78% 29.92 0.0
14 09:15 N 7 10.00 Fair CLR 71.6 66.2 83% 29.92 0.0
14 08:55 N 7 10.00 Fair CLR 71.6 66.2 83% 29.93 0.0
14 08:35 Calm 10.00 Fair CLR 71.6 66.2 83% 29.95 0.0
14 08:15 Calm 10.00 Fair CLR 69.8 66.2 88% 29.95 0.0
14 07:55 Calm 10.00 Fair CLR 68 66.2 94% 29.95 0.0
14 07:35 Calm 10.00 Fair CLR 66.2 66.2 100% 29.95 0.0
14 07:15 Calm 10.00 Fair CLR 66.2 64.4 94% 29.94 0.0
14 06:55 W 7 10.00 Fair CLR 66.2 66.2 100% 29.93 0.0
14 06:35 W 9 10.00 Fair CLR 66.2 66.2 100% 29.93 0.0
14 06:15 W 7 10.00 Fair CLR 66.2 66.2 100% 29.9 0.0
14 05:55 W 7 3.00 Fog/Mist CLR 64.4 64.4 100% 29.9 0.0
14 05:35 W 3 5.00 Fog/Mist CLR 64.4 64.4 100% 29.89 0.0
14 05:15 W 6 7.00 Fair CLR 64.4 62.6 94% 29.89 0.0
14 04:55 SW 6 5.00 Fog/Mist CLR 62.6 60.8 94% 29.9 0.0
14 04:35 SW 3 7.00 Fair CLR 62.6 62.6 100% 29.9 0.0
14 04:15 S 3 7.00 Fair CLR 62.6 60.8 94% 29.91 0.0
14 03:55 Calm 7.00 Fair CLR 64.4 62.6 94% 29.9 0.0
14 03:35 Calm 10.00 Fair CLR 64.4 64.4 100% 29.89 0.0
14 03:15 Calm 10.00 Fair CLR 64.4 62.6 94% 29.9 0.0
14 02:55 NE 3 10.00 Fair CLR 64.4 62.6 94% 29.91 0.0
14 02:35 W 3 10.00 Fair CLR 64.4 62.6 94% 29.9 0.0
14 02:15 Calm 10.00 Fair CLR 64.4 62.6 94% 29.88 0.0
14 01:55 S 3 10.00 Fair CLR 64.4 62.6 94% 29.88 0.0
14 01:35 S 5 10.00 Fair CLR 64.4 62.6 94% 29.87 0.0
14 01:15 Calm 10.00 Fair CLR 64.4 62.6 94% 29.89 0.0
14 00:55 Calm 10.00 Fair CLR 64.4 62.6 94% 29.89 0.0
14 00:35 Calm 10.00 Fair CLR 64.4 62.6 94% 29.91 0.0
14 00:15 SE 7 10.00 Partly Cloudy SCT017 SCT027 SCT090 66.2 64.4 94% 29.92 0.0
13 23:55 SE 12 G 17 7.00 Thunderstorm Light Rain SCT022 SCT050 SCT090 69.8 64.4 83% 29.93 0.0 0.01
13 23:35 NW 17 G 26 10.00 Thunderstorm SCT022 71.6 62.6 73% 29.92 0.0
13 23:15 N 17 G 33 10.00 Thunderstorm in Vicinity SCT022 71.6 62.6 73% 29.91 0.0
13 22:55 N 7 10.00 Thunderstorm in Vicinity CLR 75.2 73.4 94% 74 29.94 0.0
13 22:35 NE 5 10.00 Thunderstorm in Vicinity CLR 75.2 73.4 94% 74 29.93 0.0
13 22:15 E 7 10.00 Thunderstorm in Vicinity CLR 75.2 71.6 89% 75 29.9 0.0
13 21:55 E 7 10.00 Thunderstorm in Vicinity CLR 75.2 71.6 89% 75 29.91 0.0
13 21:35 E 6 10.00 Fair CLR 75.2 71.6 89% 75 29.91 0.0
13 21:15 E 7 10.00 Fair CLR 75.2 71.6 89% 75 29.9 0.0
13 20:55 E 6 10.00 Fair CLR 75.2 71.6 89% 75 29.9 0.0
13 20:35 E 6 10.00 Fair CLR 78.8 73.4 84% 82 29.9 0.0
13 20:15 Calm 10.00 Fair CLR 78.8 71.6 79% 82 29.9 0.0
13 19:55 SE 6 10.00 Fair CLR 80.6 71.6 74% 85 29.89 0.0
13 19:35 SE 5 10.00 Fair CLR 80.6 73.4 79% 85 29.9 0.0
13 19:15 SE 7 10.00 Fair CLR 82.4 73.4 74% 88 29.9 0.0
13 18:55 S 6 10.00 Fair CLR 82.4 73.4 74% 88 29.91 0.0
13 18:35 S 3 10.00 Fair CLR 82.4 73.4 74% 88 29.91 0.0
13 18:15 S 7 10.00 Fair CLR 82.4 71.6 70% 87 29.92 0.0
13 17:55 S 8 10.00 Fair CLR 82.4 71.6 70% 87 29.92 0.0
13 17:35 SE 9 10.00 Fair CLR 82.4 71.6 70% 87 29.91 0.0
13 17:15 SE 9 10.00 Fair CLR 82.4 69.8 66% 86 29.93 0.0
13 16:55 SE 9 10.00 Fair CLR 82.4 69.8 66% 86 29.94 0.0
13 16:35 SE 14 10.00 Fair CLR 84.2 68 58% 87 29.95 0.0
13 16:15 SE 13 G 16 10.00 Fair CLR 84.2 68 58% 87 29.95 0.0
13 15:55 SE 14 G 17 10.00 Fair CLR 84.2 68 58% 87 29.95 0.0
13 15:35 SE 9 G 13 10.00 Fair CLR 82.4 68 62% 85 29.97 0.0
13 15:15 SE 8 10.00 Partly Cloudy SCT042 82.4 69.8 66% 86 29.98 0.0
13 14:55 S 10 10.00 Thunderstorm in Vicinity SCT040 82.4 68 62% 85 29.98 0.0
13 14:35 S 10 10.00 Fair CLR 84.2 69.8 62% 88 29.97 0.0
13 14:15 S 10 10.00 Fair CLR 84.2 68 58% 87 29.97 0.0
13 13:55 S 7 10.00 Fair CLR 84.2 69.8 62% 88 29.97 0.0
13 13:35 S 8 10.00 Thunderstorm in Vicinity CLR 82.4 66.2 58% 85 29.98 0.0
13 13:15 S 9 10.00 Fair CLR 82.4 66.2 58% 85 29.97 0.0
13 12:55 S 8 10.00 Fair CLR 80.6 68 66% 83 29.97 0.0
13 12:35 S 8 10.00 Thunderstorm in Vicinity CLR 80.6 69.8 70% 84 29.97 0.0
13 12:16 S 9 0.00 NULL NULL 0 0 0% 29.97 0.0
13 09:35 S 9 10.00 Partly Cloudy SCT090 69.8 64.4 83% 29.98 0.0
13 09:15 S 9 10.00 Thunderstorm in Vicinity CLR 68 64.4 88% 29.98 0.0
13 08:55 S 8 10.00 Light Drizzle SCT090 66.2 64.4 94% 29.99 0.0
13 08:35 S 12 7.00 Light Rain SCT090 66.2 64.4 94% 30 0.0
13 08:15 S 12 10.00 Light Rain BKN090 66.2 64.4 94% 29.99 0.0
13 07:55 SW 9 10.00 Light Rain SCT060 BKN100 66.2 64.4 94% 29.98 0.0
13 07:35 E 10 10.00 Thunderstorm Light Drizzle in Vicinity SCT110 66.2 64.4 94% 29.96 0.0
13 07:15 E 17 G 22 10.00 Thunderstorm Light Rain SCT028 SCT060 66.2 64.4 94% 29.96 0.0
13 06:55 E 18 10.00 Thunderstorm Rain SCT020 BKN029 BKN041 66.2 64.4 94% 29.96 0.0
13 06:35 E 12 10.00 Thunderstorm Rain in Vicinity SCT023 BKN027 OVC032 66.2 64.4 94% 29.98 0.0 0.01
13 06:15 W 3 7.00 Thunderstorm Rain in Vicinity SCT027 BKN031 OVC055 66.2 64.4 94% 30.02 0.0
13 05:55 W 8 10.00 Thunderstorm Light Rain SCT035 SCT047 OVC055 66.2 64.4 94% 30.02 0.0
13 05:35 NW 9 G 21 10.00 Thunderstorm Light Rain SCT006 BKN035 OVC055 66.2 64.4 94% 30.01 0.0
13 05:15 W 22 G 28 1.75 Thunderstorm Heavy Rain and Breezy BKN006 BKN011 OVC045 66.2 64.4 94% 30.03 0.0 0.04
13 04:55 S 6 10.00 Thunderstorm CLR 73.4 69.8 89% 30 0.0
13 04:35 SE 7 10.00 Thunderstorm in Vicinity CLR 73.4 69.8 89% 29.98 0.0
13 04:15 SE 6 10.00 Thunderstorm in Vicinity CLR 73.4 69.8 89% 29.98 0.0
13 03:55 SE 8 10.00 Thunderstorm CLR 73.4 69.8 89% 29.99 0.0
13 03:35 SE 6 10.00 Fair CLR 73.4 69.8 89% 29.98 0.0
13 03:15 SE 7 10.00 Fair CLR 73.4 69.8 89% 29.98 0.0
13 02:55 SE 7 10.00 Thunderstorm in Vicinity CLR 71.6 69.8 94% 29.99 0.0
13 02:35 S 5 10.00 Fair CLR 71.6 68 88% 29.99 0.0
13 02:15 SE 6 10.00 Fair CLR 69.8 68 94% 29.99 0.0
13 01:55 SE 3 10.00 Fair CLR 69.8 66.2 88% 29.99 0.0
13 01:35 SE 5 10.00 Fair CLR 69.8 66.2 88% 29.99 0.0
13 01:15 SE 5 10.00 Fair CLR 69.8 66.2 88% 30 0.0
13 00:55 SE 7 10.00 Fair CLR 69.8 66.2 88% 29.99 0.0
Date Time (cdt) Wind (mph) Vis. (mi.) Weather Sky Cond. Air Dwpt Max. Min. Relative Humidity Wind Chill (°F) Heat Index (°F) altimeter (in) sea level (mb) 1 hr 3 hr 6 hr
6 hour
Temperature (ºF) Pressure Precipitation (in)